| time (UTC) | temp C | wind direction | speed KPH | gust KPH | rain 1hr cm | rain 24hr cm | rain mn cm | humidity % | barometer mb |
| 20260507015407 | 17 | 87 | 6.4 | 11.3 | 0.00 | 0.00 | 0.00 | 78 | 1015.0 |
| 20260507014907 | 17 | 84 | 4.8 | 11.3 | 0.00 | 0.00 | 0.00 | 77 | 1015.0 |
| 20260507014408 | 17 | 83 | 6.4 | 8.0 | 0.00 | 0.00 | 0.00 | 78 | 1015.0 |
| 20260507013907 | 17 | 24 | 4.8 | 9.7 | 0.00 | 0.00 | 0.00 | 79 | 1015.0 |
| 20260507013407 | 17 | 19 | 4.8 | 8.0 | 0.00 | 0.00 | 0.00 | 78 | 1015.0 |
| 20260507012908 | 17 | 55 | 4.8 | 12.9 | 0.00 | 0.00 | 0.00 | 79 | 1015.0 |
| 20260507012410 | 17 | 26 | 6.4 | 8.0 | 0.00 | 0.00 | 0.00 | 78 | 1015.0 |
| 20260507011907 | 17 | 19 | 4.8 | 8.0 | 0.00 | 0.00 | 0.00 | 78 | 1015.0 |
| 20260507011408 | 17 | 63 | 4.8 | 12.9 | 0.00 | 0.00 | 0.00 | 77 | 1015.0 |
| 20260507010907 | 17 | 63 | 3.2 | 9.7 | 0.00 | 0.00 | 0.00 | 76 | 1015.0 |
| 20260507010407 | 17 | 91 | 4.8 | 12.9 | 0.00 | 0.00 | 0.00 | 76 | 1015.0 |
| 20260507005907 | 17 | 63 | 4.8 | 11.3 | 0.00 | 0.00 | 0.00 | 76 | 1015.0 |
| 20260507005409 | 18 | 62 | 4.8 | 9.7 | 0.00 | 0.00 | 0.00 | 75 | 1015.0 |
| 20260507004907 | 17 | 84 | 1.6 | 8.0 | 0.00 | 0.00 | 0.00 | 76 | 1015.0 |
| 20260507004407 | 18 | 81 | 8.0 | 14.5 | 0.00 | 0.00 | 0.00 | 74 | 1015.0 |
| 20260507003907 | 19 | 119 | 6.4 | 16.1 | 0.00 | 0.00 | 0.00 | 72 | 1015.0 |
| 20260507003407 | 19 | 124 | 0.0 | 6.4 | 0.00 | 0.00 | 0.00 | 71 | 1015.0 |
| 20260507002907 | 19 | 88 | 3.2 | 9.7 | 0.00 | 0.00 | 0.00 | 70 | 1015.0 |
| 20260507002408 | 20 | 108 | 8.0 | 8.0 | 0.00 | 0.00 | 0.00 | 69 | 1015.0 |
| 20260507001907 | 20 | 109 | 6.4 | 9.7 | 0.00 | 0.00 | 0.00 | 68 | 1015.0 |
| 20260507001407 | 20 | 84 | 1.6 | 6.4 | 0.00 | 0.00 | 0.00 | 69 | 1015.0 |
| 20260507000908 | 20 | 116 | 8.0 | 8.0 | 0.00 | 0.00 | 0.00 | 68 | 1015.0 |
| 20260507000407 | 20 | 88 | 4.8 | 8.0 | 0.00 | 0.00 | 0.00 | 68 | 1015.0 |
| 20260506235908 | 20 | 80 | 4.8 | 6.4 | 0.00 | 0.00 | 0.00 | 68 | 1015.0 |
| 20260506235407 | 20 | 130 | 3.2 | 4.8 | 0.00 | 0.00 | 0.00 | 68 | 1015.0 |
| 20260506234914 | 20 | 99 | 3.2 | 8.0 | 0.00 | 0.00 | 0.00 | 68 | 1015.0 |
| 20260506234407 | 20 | 133 | 0.0 | 11.3 | 0.00 | 0.00 | 0.00 | 68 | 1015.0 |
| 20260506233907 | 20 | 84 | 4.8 | 8.0 | 0.00 | 0.00 | 0.00 | 66 | 1015.0 |
| 20260506233407 | 20 | 83 | 8.0 | 8.0 | 0.00 | 0.00 | 0.00 | 67 | 1015.0 |
| 20260506232907 | 20 | 85 | 3.2 | 8.0 | 0.00 | 0.00 | 0.00 | 67 | 1015.0 |
| 20260506232407 | 20 | 52 | 3.2 | 11.3 | 0.00 | 0.00 | 0.00 | 67 | 1015.0 |
| 20260506231907 | 20 | 275 | 1.6 | 8.0 | 0.00 | 0.00 | 0.00 | 66 | 1015.0 |
| 20260506231408 | 20 | 78 | 6.4 | 6.4 | 0.00 | 0.00 | 0.00 | 64 | 1016.0 |
| 20260506230907 | 20 | 106 | 4.8 | 12.9 | 0.00 | 0.00 | 0.00 | 65 | 1015.0 |
| 20260506230408 | 21 | 129 | 4.8 | 6.4 | 0.00 | 0.00 | 0.00 | 65 | 1016.0 |
| 20260506225907 | 20 | 92 | 0.0 | 9.7 | 0.00 | 0.00 | 0.00 | 68 | 1016.0 |
| 20260506225410 | 20 | 84 | 11.3 | 14.5 | 0.00 | 0.00 | 0.00 | 67 | 1016.0 |
| 20260506224907 | 20 | 81 | 4.8 | 8.0 | 0.00 | 0.00 | 0.00 | 67 | 1016.0 |
| 20260506224407 | 20 | 92 | 6.4 | 8.0 | 0.00 | 0.00 | 0.00 | 68 | 1016.0 |
| 20260506223907 | 20 | 76 | 14.5 | 14.5 | 0.00 | 0.00 | 0.00 | 69 | 1016.0 |
| 20260506223407 | 20 | 85 | 4.8 | 14.5 | 0.00 | 0.00 | 0.00 | 65 | 1016.0 |
| 20260506222447 | 20 | 102 | 3.2 | 11.3 | 0.00 | 0.00 | 0.00 | 67 | 1016.0 |
| 20260506221907 | 20 | 77 | 9.7 | 12.9 | 0.00 | 0.00 | 0.00 | 66 | 1016.0 |
| 20260506221407 | 20 | 101 | 8.0 | 9.7 | 0.00 | 0.00 | 0.00 | 66 | 1016.0 |
| 20260506220907 | 20 | 81 | 1.6 | 14.5 | 0.00 | 0.00 | 0.00 | 67 | 1016.0 |
| 20260506220408 | 21 | 97 | 4.8 | 8.0 | 0.00 | 0.00 | 0.00 | 64 | 1016.0 |
| 20260506215908 | 21 | 121 | 4.8 | 9.7 | 0.00 | 0.00 | 0.00 | 64 | 1016.0 |
| 20260506215407 | 20 | 86 | 6.4 | 8.0 | 0.00 | 0.00 | 0.00 | 66 | 1016.0 |
| 20260506214907 | 20 | 110 | 4.8 | 9.7 | 0.00 | 0.00 | 0.00 | 67 | 1016.0 |
| 20260506214407 | 20 | 76 | 4.8 | 8.0 | 0.00 | 0.00 | 0.00 | 65 | 1016.0 |
| 20260506213907 | 20 | 95 | 4.8 | 8.0 | 0.00 | 0.00 | 0.00 | 65 | 1016.0 |
| 20260506213407 | 20 | 93 | 3.2 | 9.7 | 0.00 | 0.00 | 0.00 | 63 | 1016.0 |
| 20260506212908 | 21 | 78 | 6.4 | 9.7 | 0.00 | 0.00 | 0.00 | 64 | 1016.0 |
| 20260506212407 | 21 | 117 | 3.2 | 8.0 | 0.00 | 0.00 | 0.00 | 63 | 1016.0 |
| 20260506211908 | 20 | 83 | 3.2 | 9.7 | 0.00 | 0.00 | 0.00 | 65 | 1017.0 |
| 20260506211407 | 20 | 117 | 3.2 | 9.7 | 0.00 | 0.00 | 0.00 | 65 | 1016.0 |
| 20260506210907 | 20 | 116 | 6.4 | 11.3 | 0.00 | 0.00 | 0.00 | 66 | 1016.0 |
| 20260506210407 | 20 | 88 | 6.4 | 9.7 | 0.00 | 0.00 | 0.00 | 64 | 1016.0 |
| 20260506205907 | 21 | 129 | 1.6 | 9.7 | 0.00 | 0.00 | 0.00 | 63 | 1016.0 |
| 20260506205408 | 20 | 119 | 3.2 | 6.4 | 0.00 | 0.00 | 0.00 | 66 | 1016.0 |
| 20260506204908 | 20 | 108 | 8.0 | 12.9 | 0.00 | 0.00 | 0.00 | 65 | 1017.0 |
| 20260506204407 | 21 | 99 | 4.8 | 8.0 | 0.00 | 0.00 | 0.00 | 63 | 1017.0 |
| 20260506203908 | 20 | 111 | 4.8 | 9.7 | 0.00 | 0.00 | 0.00 | 65 | 1017.0 |
| 20260506203407 | 20 | 121 | 6.4 | 8.0 | 0.00 | 0.00 | 0.00 | 65 | 1017.0 |
| 20260506202908 | 20 | 117 | 6.4 | 11.3 | 0.00 | 0.00 | 0.00 | 65 | 1017.0 |
| 20260506202407 | 21 | 129 | 3.2 | 6.4 | 0.00 | 0.00 | 0.00 | 64 | 1017.0 |
| 20260506201907 | 21 | 140 | 1.6 | 9.7 | 0.00 | 0.00 | 0.00 | 62 | 1017.0 |
| 20260506201407 | 21 | 124 | 4.8 | 9.7 | 0.00 | 0.00 | 0.00 | 60 | 1017.0 |
| 20260506200908 | 21 | 112 | 1.6 | 8.0 | 0.00 | 0.00 | 0.00 | 60 | 1017.0 |
| 20260506200407 | 21 | 115 | 4.8 | 8.0 | 0.00 | 0.00 | 0.00 | 59 | 1017.0 |
| 20260506195907 | 21 | 106 | 3.2 | 8.0 | 0.00 | 0.00 | 0.00 | 61 | 1017.0 |
| 20260506195407 | 21 | 101 | 3.2 | 6.4 | 0.00 | 0.00 | 0.00 | 61 | 1017.0 |
| 20260506194909 | 21 | 72 | 0.0 | 6.4 | 0.00 | 0.00 | 0.00 | 59 | 1017.0 |
| 20260506194407 | 21 | 123 | 1.6 | 6.4 | 0.00 | 0.00 | 0.00 | 60 | 1017.0 |
| 20260506193907 | 21 | 105 | 0.0 | 6.4 | 0.00 | 0.00 | 0.00 | 60 | 1017.0 |
| 20260506193408 | 21 | 155 | 4.8 | 6.4 | 0.00 | 0.00 | 0.00 | 59 | 1017.0 |
| 20260506192907 | 21 | 153 | 4.8 | 6.4 | 0.00 | 0.00 | 0.00 | 59 | 1017.0 |
| 20260506192407 | 21 | 124 | 3.2 | 6.4 | 0.00 | 0.00 | 0.00 | 60 | 1017.0 |
| 20260506191907 | 21 | 66 | 4.8 | 6.4 | 0.00 | 0.00 | 0.00 | 62 | 1017.0 |
| 20260506191407 | 21 | 121 | 1.6 | 6.4 | 0.00 | 0.00 | 0.00 | 60 | 1017.0 |
| 20260506190909 | 20 | 96 | 3.2 | 4.8 | 0.00 | 0.00 | 0.00 | 63 | 1017.0 |
| 20260506190407 | 20 | 99 | 4.8 | 6.4 | 0.00 | 0.00 | 0.00 | 61 | 1017.0 |
| 20260506185907 | 20 | 130 | 0.0 | 4.8 | 0.00 | 0.00 | 0.00 | 61 | 1017.0 |
| 20260506185407 | 20 | 96 | 3.2 | 6.4 | 0.00 | 0.00 | 0.00 | 63 | 1017.0 |
| 20260506184908 | 20 | 152 | 4.8 | 6.4 | 0.00 | 0.00 | 0.00 | 62 | 1017.0 |
| 20260506184407 | 20 | 162 | 4.8 | 6.4 | 0.00 | 0.00 | 0.00 | 64 | 1017.0 |
| 20260506183907 | 19 | 25 | 0.0 | 4.8 | 0.00 | 0.00 | 0.00 | 66 | 1018.0 |
| 20260506183410 | 18 | 128 | 4.8 | 8.0 | 0.00 | 0.00 | 0.00 | 66 | 1017.0 |
| 20260506182908 | 19 | 130 | 6.4 | 9.7 | 0.00 | 0.00 | 0.00 | 64 | 1017.0 |
| 20260506182407 | 19 | 84 | 1.6 | 6.4 | 0.00 | 0.00 | 0.00 | 65 | 1018.0 |
| 20260506181907 | 19 | 124 | 4.8 | 6.4 | 0.00 | 0.00 | 0.00 | 64 | 1017.0 |
| 20260506181408 | 19 | 126 | 0.0 | 6.4 | 0.00 | 0.00 | 0.00 | 64 | 1017.0 |
| 20260506180908 | 19 | 63 | 3.2 | 8.0 | 0.00 | 0.00 | 0.00 | 64 | 1018.0 |
| 20260506180408 | 19 | 104 | 4.8 | 6.4 | 0.00 | 0.00 | 0.00 | 65 | 1017.0 |
| 20260506175907 | 18 | 121 | 3.2 | 6.4 | 0.00 | 0.00 | 0.00 | 66 | 1017.0 |
| 20260506175407 | 18 | 110 | 4.8 | 6.4 | 0.00 | 0.00 | 0.00 | 66 | 1018.0 |
| 20260506174907 | 18 | 175 | 4.8 | 8.0 | 0.00 | 0.00 | 0.00 | 66 | 1017.0 |
| 20260506174408 | 18 | 150 | 0.0 | 8.0 | 0.00 | 0.00 | 0.00 | 67 | 1017.0 |
| 20260506173907 | 18 | 135 | 0.0 | 4.8 | 0.00 | 0.00 | 0.00 | 66 | 1018.0 |
| 20260506173407 | 18 | 126 | 6.4 | 8.0 | 0.00 | 0.00 | 0.00 | 65 | 1018.0 |
| 20260506172907 | 18 | 67 | 0.0 | 6.4 | 0.00 | 0.00 | 0.00 | 68 | 1018.0 |
| 20260506172408 | 17 | 115 | 1.6 | 4.8 | 0.00 | 0.00 | 0.00 | 67 | 1018.0 |
| 20260506171909 | 17 | 94 | 3.2 | 6.4 | 0.00 | 0.00 | 0.00 | 69 | 1018.0 |
| 20260506171408 | 17 | 123 | 1.6 | 6.4 | 0.00 | 0.00 | 0.00 | 69 | 1018.0 |
| 20260506170907 | 18 | 145 | 4.8 | 6.4 | 0.00 | 0.00 | 0.00 | 67 | 1018.0 |
| 20260506170407 | 17 | 108 | 1.6 | 6.4 | 0.00 | 0.00 | 0.00 | 67 | 1018.0 |
| 20260506165908 | 17 | 144 | 3.2 | 6.4 | 0.00 | 0.00 | 0.00 | 68 | 1018.0 |
| 20260506165407 | 17 | 153 | 3.2 | 4.8 | 0.00 | 0.00 | 0.00 | 69 | 1017.0 |
| 20260506164908 | 17 | 80 | 3.2 | 6.4 | 0.00 | 0.00 | 0.00 | 68 | 1018.0 |
| 20260506164407 | 17 | 161 | 3.2 | 4.8 | 0.00 | 0.00 | 0.00 | 69 | 1018.0 |
| 20260506163907 | 17 | 98 | 0.0 | 6.4 | 0.00 | 0.00 | 0.00 | 70 | 1018.0 |
| 20260506163407 | 17 | 81 | 0.0 | 8.0 | 0.00 | 0.00 | 0.00 | 71 | 1017.0 |
| 20260506162908 | 16 | 105 | 4.8 | 8.0 | 0.00 | 0.00 | 0.00 | 71 | 1018.0 |
| 20260506162407 | 17 | 146 | 3.2 | 6.4 | 0.00 | 0.00 | 0.00 | 70 | 1018.0 |
| 20260506161908 | 16 | 89 | 0.0 | 4.8 | 0.00 | 0.00 | 0.00 | 73 | 1018.0 |
| 20260506161407 | 16 | 95 | 1.6 | 6.4 | 0.00 | 0.00 | 0.00 | 74 | 1018.0 |
| 20260506160907 | 16 | 110 | 1.6 | 6.4 | 0.00 | 0.00 | 0.00 | 76 | 1018.0 |
| 20260506160408 | 16 | 73 | 8.0 | 8.0 | 0.00 | 0.00 | 0.00 | 76 | 1018.0 |
| 20260506155910 | 15 | 85 | 3.2 | 4.8 | 0.00 | 0.00 | 0.00 | 79 | 1018.0 |
| 20260506155408 | 15 | 121 | 1.6 | 6.4 | 0.00 | 0.00 | 0.00 | 80 | 1018.0 |
| 20260506154908 | 15 | 85 | 4.8 | 6.4 | 0.00 | 0.00 | 0.00 | 80 | 1018.0 |
| 20260506154407 | 15 | 107 | 3.2 | 4.8 | 0.00 | 0.00 | 0.00 | 80 | 1018.0 |
| 20260506153908 | 15 | 91 | 4.8 | 6.4 | 0.00 | 0.00 | 0.00 | 79 | 1018.0 |
| 20260506153407 | 15 | 101 | 4.8 | 6.4 | 0.00 | 0.00 | 0.00 | 79 | 1018.0 |
| 20260506152908 | 15 | 99 | 4.8 | 4.8 | 0.00 | 0.00 | 0.00 | 80 | 1018.0 |
| 20260506152408 | 15 | 73 | 3.2 | 8.0 | 0.00 | 0.00 | 0.00 | 78 | 1018.0 |
| 20260506151907 | 15 | 101 | 3.2 | 6.4 | 0.00 | 0.00 | 0.00 | 80 | 1018.0 |
| 20260506151408 | 15 | 78 | 4.8 | 8.0 | 0.00 | 0.00 | 0.00 | 79 | 1018.0 |
| 20260506150909 | 15 | 84 | 3.2 | 6.4 | 0.00 | 0.00 | 0.00 | 79 | 1017.0 |
| 20260506150411 | 15 | 93 | 3.2 | 4.8 | 0.00 | 0.00 | 0.00 | 80 | 1017.0 |
| 20260506145907 | 14 | 85 | 1.6 | 3.2 | 0.00 | 0.00 | 0.00 | 82 | 1018.0 |
| 20260506145407 | 14 | 320 | 0.0 | 3.2 | 0.00 | 0.00 | 0.00 | 81 | 1017.0 |
| 20260506144907 | 13 | 30 | 0.0 | 4.8 | 0.00 | 0.00 | 0.00 | 82 | 1017.0 |
| 20260506144410 | 13 | 71 | 1.6 | 3.2 | 0.00 | 0.00 | 0.00 | 82 | 1018.0 |
| 20260506143907 | 13 | 141 | 1.6 | 3.2 | 0.00 | 0.00 | 0.00 | 83 | 1017.0 |
| 20260506143408 | 13 | 85 | 1.6 | 3.2 | 0.00 | 0.00 | 0.00 | 84 | 1017.0 |
| 20260506142909 | 13 | 71 | 0.0 | 3.2 | 0.00 | 0.00 | 0.00 | 83 | 1017.0 |
| 20260506142407 | 13 | 60 | 1.6 | 3.2 | 0.00 | 0.00 | 0.00 | 83 | 1017.0 |
| 20260506141908 | 13 | 101 | 1.6 | 3.2 | 0.00 | 0.00 | 0.00 | 84 | 1017.0 |
| 20260506141408 | 13 | 120 | 0.0 | 3.2 | 0.00 | 0.00 | 0.00 | 84 | 1017.0 |
| 20260506140909 | 13 | 66 | 0.0 | 4.8 | 0.00 | 0.00 | 0.00 | 84 | 1017.0 |
| 20260506140408 | 13 | 117 | 0.0 | 1.6 | 0.00 | 0.00 | 0.00 | 85 | 1017.0 |
| 20260506135908 | 13 | 130 | 0.0 | 3.2 | 0.00 | 0.00 | 0.00 | 85 | 1017.0 |
| 20260506135407 | 13 | 137 | 0.0 | 1.6 | 0.00 | 0.00 | 0.00 | 85 | 1017.0 |
| 20260506134908 | 13 | 55 | 0.0 | 1.6 | 0.00 | 0.00 | 0.00 | 84 | 1017.0 |
| 20260506134407 | 13 | 100 | 0.0 | 1.6 | 0.00 | 0.00 | 0.00 | 84 | 1017.0 |
| 20260506133907 | 13 | 99 | 0.0 | 3.2 | 0.00 | 0.00 | 0.00 | 84 | 1017.0 |
| 20260506133408 | 13 | 177 | 1.6 | 3.2 | 0.00 | 0.00 | 0.00 | 84 | 1017.0 |
| 20260506132908 | 13 | 119 | 1.6 | 3.2 | 0.00 | 0.00 | 0.00 | 84 | 1017.0 |
| 20260506132409 | 13 | 204 | 0.0 | 3.2 | 0.00 | 0.00 | 0.00 | 84 | 1017.0 |
| 20260506131908 | 13 | 151 | 0.0 | 3.2 | 0.00 | 0.00 | 0.00 | 83 | 1017.0 |
| 20260506131407 | 13 | 158 | 0.0 | 3.2 | 0.00 | 0.00 | 0.00 | 83 | 1017.0 |
| 20260506130907 | 13 | 76 | 0.0 | 0.0 | 0.00 | 0.00 | 0.00 | 83 | 1017.0 |
| 20260506130407 | 13 | 224 | 0.0 | 1.6 | 0.00 | 0.00 | 0.00 | 83 | 1017.0 |
| 20260506125907 | 13 | 211 | 1.6 | 4.8 | 0.00 | 0.00 | 0.00 | 82 | 1017.0 |
| 20260506125408 | 13 | 198 | 3.2 | 3.2 | 0.00 | 0.00 | 0.00 | 82 | 1016.0 |
| 20260506124907 | 13 | 111 | 0.0 | 3.2 | 0.00 | 0.00 | 0.00 | 82 | 1017.0 |
| 20260506124407 | 13 | 135 | 0.0 | 3.2 | 0.00 | 0.00 | 0.00 | 82 | 1017.0 |
| 20260506123908 | 13 | 191 | 0.0 | 1.6 | 0.00 | 0.00 | 0.00 | 81 | 1016.0 |
| 20260506123411 | 13 | 234 | 0.0 | 3.2 | 0.00 | 0.00 | 0.00 | 81 | 1016.0 |
| 20260506122907 | 13 | 145 | 3.2 | 3.2 | 0.00 | 0.00 | 0.00 | 81 | 1016.0 |
| 20260506122407 | 13 | 89 | 0.0 | 3.2 | 0.00 | 0.00 | 0.00 | 81 | 1016.0 |
| 20260506121907 | 13 | 143 | 1.6 | 3.2 | 0.00 | 0.00 | 0.00 | 81 | 1017.0 |
| 20260506121407 | 13 | 128 | 1.6 | 3.2 | 0.00 | 0.00 | 0.00 | 81 | 1016.0 |
| 20260506120907 | 13 | 102 | 0.0 | 3.2 | 0.00 | 0.00 | 0.00 | 81 | 1016.0 |
| 20260506120409 | 13 | 99 | 3.2 | 3.2 | 0.00 | 0.00 | 0.00 | 81 | 1016.0 |
| 20260506115907 | 13 | 144 | 0.0 | 4.8 | 0.00 | 0.00 | 0.00 | 81 | 1016.0 |
| 20260506115407 | 13 | 115 | 1.6 | 3.2 | 0.00 | 0.00 | 0.00 | 81 | 1017.0 |
| 20260506114909 | 13 | 109 | 0.0 | 3.2 | 0.00 | 0.00 | 0.00 | 81 | 1016.0 |
| 20260506114407 | 13 | 192 | 3.2 | 3.2 | 0.00 | 0.00 | 0.00 | 81 | 1016.0 |
| 20260506113908 | 13 | 119 | 0.0 | 3.2 | 0.00 | 0.00 | 0.00 | 81 | 1016.0 |
| 20260506113407 | 13 | 123 | 0.0 | 3.2 | 0.00 | 0.00 | 0.00 | 81 | 1016.0 |
| 20260506112908 | 13 | 121 | 1.6 | 3.2 | 0.00 | 0.00 | 0.00 | 81 | 1016.0 |
| 20260506112408 | 13 | 149 | 3.2 | 3.2 | 0.00 | 0.00 | 0.00 | 81 | 1016.0 |
| 20260506111907 | 13 | 138 | 1.6 | 3.2 | 0.00 | 0.00 | 0.00 | 81 | 1016.0 |
| 20260506111407 | 13 | 112 | 0.0 | 3.2 | 0.00 | 0.00 | 0.00 | 80 | 1016.0 |
| 20260506110907 | 13 | 73 | 0.0 | 3.2 | 0.00 | 0.00 | 0.00 | 80 | 1016.0 |
| 20260506110407 | 13 | 119 | 0.0 | 3.2 | 0.00 | 0.00 | 0.00 | 80 | 1016.0 |
| 20260506105907 | 13 | 123 | 0.0 | 4.8 | 0.00 | 0.00 | 0.00 | 80 | 1016.0 |
| 20260506105407 | 13 | 217 | 0.0 | 3.2 | 0.00 | 0.00 | 0.00 | 80 | 1016.0 |
| 20260506104907 | 13 | 112 | 0.0 | 3.2 | 0.00 | 0.00 | 0.00 | 80 | 1016.0 |
| 20260506104407 | 13 | 76 | 1.6 | 3.2 | 0.00 | 0.00 | 0.00 | 80 | 1016.0 |
| 20260506103908 | 13 | 124 | 1.6 | 3.2 | 0.00 | 0.00 | 0.00 | 80 | 1016.0 |
| 20260506103408 | 13 | 6 | 0.0 | 4.8 | 0.00 | 0.00 | 0.00 | 80 | 1016.0 |
| 20260506102909 | 13 | 123 | 3.2 | 3.2 | 0.00 | 0.00 | 0.00 | 80 | 1016.0 |
| 20260506102407 | 13 | 114 | 0.0 | 1.6 | 0.00 | 0.00 | 0.00 | 80 | 1016.0 |
| 20260506101907 | 13 | 119 | 1.6 | 3.2 | 0.00 | 0.00 | 0.00 | 79 | 1016.0 |
| 20260506101408 | 13 | 35 | 0.0 | 3.2 | 0.00 | 0.00 | 0.00 | 80 | 1016.0 |
| 20260506100907 | 13 | 151 | 1.6 | 3.2 | 0.00 | 0.00 | 0.00 | 79 | 1016.0 |
| 20260506100409 | 13 | 138 | 0.0 | 3.2 | 0.00 | 0.00 | 0.00 | 79 | 1016.0 |
| 20260506095907 | 13 | 111 | 0.0 | 3.2 | 0.00 | 0.00 | 0.00 | 79 | 1016.0 |
| 20260506095407 | 13 | 132 | 1.6 | 3.2 | 0.00 | 0.00 | 0.00 | 79 | 1016.0 |
| 20260506094907 | 13 | 128 | 3.2 | 4.8 | 0.00 | 0.00 | 0.00 | 79 | 1016.0 |
| 20260506094408 | 13 | 224 | 0.0 | 3.2 | 0.00 | 0.00 | 0.00 | 79 | 1016.0 |
| 20260506093907 | 13 | 176 | 3.2 | 3.2 | 0.00 | 0.00 | 0.00 | 79 | 1016.0 |
| 20260506093408 | 13 | 135 | 1.6 | 3.2 | 0.00 | 0.00 | 0.00 | 79 | 1016.0 |
| 20260506092907 | 13 | 175 | 1.6 | 3.2 | 0.00 | 0.00 | 0.00 | 79 | 1016.0 |
| 20260506092408 | 13 | 139 | 0.0 | 3.2 | 0.00 | 0.00 | 0.00 | 79 | 1016.0 |
| 20260506091907 | 13 | 96 | 0.0 | 3.2 | 0.00 | 0.00 | 0.00 | 80 | 1016.0 |
| 20260506091407 | 13 | 256 | 0.0 | 3.2 | 0.00 | 0.00 | 0.00 | 79 | 1016.0 |
| 20260506090423 | 13 | 102 | 0.0 | 3.2 | 0.00 | 0.00 | 0.00 | 80 | 1016.0 |
| 20260506085907 | 13 | 87 | 0.0 | 3.2 | 0.00 | 0.00 | 0.00 | 80 | 1016.0 |
| 20260506085407 | 13 | 112 | 0.0 | 3.2 | 0.00 | 0.00 | 0.00 | 80 | 1016.0 |
| 20260506084908 | 13 | 66 | 1.6 | 3.2 | 0.00 | 0.00 | 0.00 | 80 | 1016.0 |
| 20260506084407 | 13 | 113 | 0.0 | 3.2 | 0.00 | 0.00 | 0.00 | 79 | 1016.0 |
| 20260506083907 | 13 | 129 | 1.6 | 4.8 | 0.00 | 0.00 | 0.00 | 79 | 1016.0 |
| 20260506083408 | 13 | 79 | 3.2 | 3.2 | 0.00 | 0.00 | 0.00 | 80 | 1016.0 |
| 20260506082908 | 13 | 88 | 3.2 | 4.8 | 0.00 | 0.00 | 0.00 | 79 | 1016.0 |
| 20260506082407 | 13 | 107 | 1.6 | 4.8 | 0.00 | 0.00 | 0.00 | 79 | 1016.0 |
| 20260506081907 | 13 | 93 | 3.2 | 4.8 | 0.00 | 0.00 | 0.00 | 79 | 1016.0 |
| 20260506081408 | 13 | 39 | 0.0 | 4.8 | 0.00 | 0.00 | 0.00 | 79 | 1016.0 |
| 20260506080908 | 13 | 113 | 1.6 | 4.8 | 0.00 | 0.00 | 0.00 | 79 | 1016.0 |
| 20260506080408 | 13 | 132 | 3.2 | 4.8 | 0.00 | 0.00 | 0.00 | 79 | 1016.0 |
| 20260506073407 | 13 | 134 | 0.0 | 4.8 | 0.00 | 0.00 | 0.00 | 77 | 1016.0 |
| 20260506072907 | 13 | 149 | 1.6 | 4.8 | 0.00 | 0.00 | 0.00 | 78 | 1016.0 |
| 20260506072407 | 13 | 161 | 1.6 | 4.8 | 0.00 | 0.00 | 0.00 | 78 | 1016.0 |
| 20260506071907 | 13 | 179 | 0.0 | 4.8 | 0.00 | 0.00 | 0.00 | 78 | 1016.0 |
| 20260506071407 | 13 | 184 | 3.2 | 4.8 | 0.00 | 0.00 | 0.00 | 78 | 1016.0 |
| 20260506070907 | 13 | 141 | 3.2 | 4.8 | 0.00 | 0.00 | 0.00 | 78 | 1016.0 |
| 20260506070407 | 13 | 194 | 1.6 | 3.2 | 0.00 | 0.00 | 0.00 | 78 | 1015.0 |
| 20260506062408 | 13 | 86 | 0.0 | 3.2 | 0.00 | 0.00 | 0.33 | 81 | 1015.0 |
| 20260506061907 | 13 | 128 | 3.2 | 4.8 | 0.00 | 0.00 | 0.33 | 81 | 1015.0 |
| 20260506061407 | 13 | 145 | 3.2 | 4.8 | 0.00 | 0.00 | 0.33 | 81 | 1015.0 |
| 20260506060907 | 13 | 134 | 1.6 | 4.8 | 0.00 | 0.00 | 0.33 | 81 | 1015.0 |
| 20260506060408 | 13 | 142 | 3.2 | 4.8 | 0.00 | 0.00 | 0.33 | 81 | 1015.0 |
| 20260506051407 | 13 | 103 | 6.4 | 8.0 | 0.00 | 0.00 | 0.33 | 81 | 1015.0 |
| 20260506050907 | 13 | 114 | 4.8 | 6.4 | 0.00 | 0.00 | 0.33 | 81 | 1015.0 |
| 20260506050407 | 13 | 71 | 3.2 | 8.0 | 0.00 | 0.00 | 0.33 | 81 | 1015.0 |
| 20260506044907 | 13 | 108 | 1.6 | 8.0 | 0.00 | 0.00 | 0.33 | 83 | 1015.0 |
| 20260506044408 | 13 | 130 | 6.4 | 9.7 | 0.00 | 0.00 | 0.33 | 84 | 1015.0 |
| 20260506043907 | 13 | 105 | 3.2 | 6.4 | 0.00 | 0.00 | 0.33 | 85 | 1015.0 |
| 20260506043407 | 13 | 37 | 1.6 | 6.4 | 0.00 | 0.00 | 0.33 | 85 | 1014.0 |
| 20260506042907 | 13 | 45 | 1.6 | 8.0 | 0.00 | 0.00 | 0.33 | 86 | 1014.0 |
| 20260506042408 | 13 | 68 | 4.8 | 6.4 | 0.00 | 0.00 | 0.33 | 86 | 1015.0 |
| 20260506041907 | 13 | 173 | 3.2 | 6.4 | 0.00 | 0.00 | 0.33 | 86 | 1014.0 |
| 20260506041407 | 13 | 135 | 3.2 | 6.4 | 0.00 | 0.00 | 0.33 | 86 | 1014.0 |
| 20260506040907 | 13 | 81 | 4.8 | 6.4 | 0.00 | 0.00 | 0.33 | 86 | 1015.0 |
| 20260506040407 | 13 | 322 | 0.0 | 4.8 | 0.00 | 0.00 | 0.33 | 86 | 1014.0 |
| 20260506035907 | 13 | 55 | 3.2 | 4.8 | 0.00 | 0.00 | 0.33 | 86 | 1014.0 |
| 20260506035407 | 13 | 123 | 3.2 | 3.2 | 0.00 | 0.00 | 0.33 | 85 | 1014.0 |
| 20260506034907 | 13 | 86 | 3.2 | 4.8 | 0.00 | 0.00 | 0.33 | 85 | 1014.0 |
| 20260506034407 | 13 | 118 | 0.0 | 3.2 | 0.00 | 0.00 | 0.33 | 84 | 1014.0 |
| 20260506033907 | 13 | 98 | 0.0 | 6.4 | 0.00 | 0.00 | 0.33 | 85 | 1014.0 |
| 20260506033411 | 13 | 64 | 0.0 | 4.8 | 0.00 | 0.00 | 0.33 | 85 | 1014.0 |
| 20260506032908 | 13 | 89 | 0.0 | 3.2 | 0.00 | 0.00 | 0.33 | 84 | 1014.0 |
| 20260506032408 | 13 | 72 | 1.6 | 4.8 | 0.00 | 0.00 | 0.33 | 83 | 1014.0 |
| 20260506031908 | 13 | 84 | 3.2 | 4.8 | 0.00 | 0.00 | 0.33 | 83 | 1014.0 |
| 20260506031407 | 13 | 106 | 1.6 | 4.8 | 0.00 | 0.00 | 0.33 | 83 | 1013.0 |
| 20260506030907 | 14 | 71 | 4.8 | 6.4 | 0.00 | 0.00 | 0.33 | 82 | 1013.0 |
| 20260506030407 | 14 | 113 | 3.2 | 4.8 | 0.00 | 0.00 | 0.33 | 83 | 1013.0 |
| 20260506025907 | 14 | 132 | 1.6 | 3.2 | 0.00 | 0.00 | 0.33 | 82 | 1013.0 |
| 20260506025407 | 14 | 100 | 1.6 | 4.8 | 0.00 | 0.00 | 0.33 | 82 | 1013.0 |
| 20260506024907 | 14 | 114 | 3.2 | 6.4 | 0.00 | 0.00 | 0.33 | 82 | 1013.0 |
| 20260506024407 | 14 | 142 | 4.8 | 4.8 | 0.00 | 0.00 | 0.33 | 82 | 1013.0 |
| 20260506023908 | 15 | 115 | 3.2 | 4.8 | 0.00 | 0.00 | 0.33 | 82 | 1013.0 |
| 20260506023407 | 15 | 121 | 1.6 | 6.4 | 0.00 | 0.00 | 0.33 | 82 | 1013.0 |
| 20260506022907 | 15 | 123 | 3.2 | 8.0 | 0.00 | 0.00 | 0.33 | 82 | 1013.0 |
| 20260506022408 | 15 | 119 | 3.2 | 8.0 | 0.00 | 0.00 | 0.33 | 82 | 1013.0 |
| 20260506021907 | 15 | 113 | 3.2 | 6.4 | 0.00 | 0.00 | 0.33 | 81 | 1013.0 |
| 20260506021408 | 15 | 101 | 4.8 | 8.0 | 0.00 | 0.00 | 0.33 | 81 | 1013.0 |
| 20260506020907 | 15 | 47 | 0.0 | 8.0 | 0.00 | 0.00 | 0.33 | 81 | 1013.0 |
| 20260506020407 | 15 | 105 | 1.6 | 8.0 | 0.00 | 0.00 | 0.33 | 81 | 1013.0 |
| 20260506015907 | 15 | 93 | 1.6 | 6.4 | 0.00 | 0.00 | 0.33 | 80 | 1013.0 |